DW2973 Weather Reports


Display with metric or nautical units.
time (UTC)temp
F
wind
direction
speed
MPH
gust
MPH
rain 1hr
in
rain 24hr
in
rain mn
in
humidity
%
barometer
mb
20260901103031 67 240 0.0 0.0 0.00 0.00 0.02 81 1010.6
20260901101523 68 230 0.0 0.0 0.00 0.00 0.02 81 1010.6
20260901100021 68 254 0.0 0.0 0.00 0.00 0.02 82 1010.4
20260901094522 67 252 0.0 0.0 0.00 0.00 0.02 85 1010.3
20260901093017 66 248 0.0 0.0 0.00 0.00 0.02 86 1010.3
20260901091514 65 259 0.0 0.0 0.00 0.00 0.02 88 1010.1
20260901090010 64 275 0.0 0.0 0.00 0.00 0.02 89 1010.0
20260901084508 63 270 0.0 0.0 0.00 0.00 0.02 90 1009.9
20260901083004 63 299 0.0 0.0 0.00 0.00 0.02 91 1009.8
20260901081502 63 299 0.0 0.0 0.00 0.00 0.02 92 1009.7
20260901080112 63 234 0.0 0.0 0.00 0.00 0.02 93 1009.4
20260901074559 62 234 0.0 0.0 0.00 0.00 0.02 93 1009.2
20260901073057 62 234 0.0 0.0 0.00 0.00 0.02 93 1009.2
20260901071603 62 234 0.0 0.0 0.00 0.00 0.02 94 1009.0
20260901064607 61 234 0.0 0.0 0.00 0.00 0.02 94 1008.8
20260901063106 61 234 0.0 0.0 0.00 0.00 0.02 94 1008.6
20260901061547 60 234 0.0 0.0 0.00 0.00 0.02 94 1008.5
20260901060046 60 234 0.0 0.0 0.00 0.00 0.02 94 1008.4
20260901054546 59 224 0.0 0.0 0.00 0.00 0.02 95 1008.3
20260901053045 58 224 0.0 0.0 0.00 0.00 0.02 94 1008.3
20260901051551 58 220 0.0 0.0 0.00 0.00 0.02 94 1008.2
20260901050042 58 220 0.0 0.0 0.00 0.00 0.02 94 1008.1
20260901044541 58 220 0.0 0.0 0.00 0.00 0.02 94 1007.9
20260901043040 58 220 0.0 0.0 0.00 0.00 0.02 94 1007.9
20260901041538 58 219 0.0 0.0 0.00 0.00 0.02 94 1007.7
20260901040040 58 220 0.0 0.0 0.00 0.00 0.01 94 1007.7
20260901034536 58 219 0.0 0.0 0.00 0.00 0.01 94 1007.7
20260901033039 58 219 0.0 0.0 0.00 0.00 0.01 94 1007.5
20260901031543 58 219 0.0 0.0 0.00 0.00 0.01 94 1007.3
20260901030033 58 220 0.0 0.0 0.00 0.00 0.01 94 1007.3
20260901024532 58 220 0.0 0.0 0.00 0.00 0.01 93 1007.2
20260901023030 58 220 0.0 0.0 0.00 0.00 0.01 93 1007.1
20260901021544 58 220 0.0 0.0 0.00 0.00 0.01 93 1007.1
20260901020030 58 219 0.0 0.0 0.00 0.00 0.01 93 1007.0
20260901014528 58 220 0.0 0.0 0.00 0.00 0.01 93 1006.9
20260901013033 58 220 0.0 0.0 0.00 0.00 0.01 93 1006.9
20260901011526 58 219 0.0 0.0 0.00 0.00 0.01 93 1006.9
20260901010041 58 219 0.0 0.0 0.00 0.00 0.01 93 1006.8
20260901004525 58 220 0.0 0.0 0.00 0.00 0.01 93 1006.8
20260901003028 58 220 0.0 0.0 0.00 0.00 0.01 93 1006.8
20260901001523 58 220 0.0 0.0 0.00 0.00 0.01 92 1006.7
20260901000021 59 220 0.0 0.0 0.00 0.00 0.01 92 1006.6
20260831234521 59 229 0.0 0.0 0.00 0.00 0.01 92 1006.6
20260831233019 59 229 0.0 0.0 0.00 0.00 0.01 92 1006.6
20260831231519 59 221 0.0 0.0 0.00 0.00 0.00 92 1006.5
20260831230017 59 221 0.0 0.0 0.00 0.00 0.00 92 1006.7
20260831224515 60 221 0.0 0.0 0.00 0.00 0.00 92 1006.5
20260831223021 60 221 0.0 0.0 0.00 0.00 0.00 92 1006.6
20260831221515 60 221 1.0 0.0 0.00 0.00 0.00 92 1006.7
20260831220010 60 232 0.0 0.0 0.00 0.00 0.00 92 1006.7
20260831214509 60 232 0.0 0.0 0.00 0.00 0.05 92 1006.6
20260831213008 60 232 0.0 0.0 0.00 0.00 0.05 92 1006.5
20260831211510 59 234 0.0 0.0 0.00 0.00 0.05 92 1006.5
20260831210013 59 234 0.0 0.0 0.00 0.00 0.05 92 1006.4
20260831204509 59 234 0.0 0.0 0.00 0.00 0.05 92 1006.4
20260831203010 59 233 0.0 0.0 0.00 0.00 0.05 92 1006.3
20260831201506 59 233 0.0 0.0 0.00 0.00 0.05 91 1006.3
20260831200016 59 233 0.0 0.0 0.00 0.00 0.05 91 1006.3
20260831194507 59 234 0.0 0.0 0.00 0.00 0.05 91 1006.3
20260831193009 59 234 0.0 0.0 0.00 0.00 0.05 91 1006.4
20260831191506 59 234 0.0 0.0 0.00 0.00 0.05 90 1006.3
20260831190004 59 234 0.0 0.0 0.00 0.00 0.04 90 1006.0
20260831184505 60 233 0.0 0.0 0.00 0.00 0.04 89 1005.6
20260831183003 60 233 0.0 0.0 0.00 0.00 0.04 89 1005.6
20260831181504 61 233 0.0 0.0 0.00 0.00 0.04 88 1005.6
20260831180002 61 234 0.0 0.0 0.00 0.00 0.04 88 1005.6
20260831174502 62 234 0.0 0.0 0.00 0.00 0.04 88 1005.5
20260831173002 62 240 0.0 0.0 0.00 0.00 0.04 88 1005.4
20260831171502 62 240 0.0 0.0 0.00 0.00 0.04 88 1005.3
20260831170001 63 240 0.0 0.0 0.00 0.00 0.04 88 1005.4
20260831164501 63 240 0.0 0.0 0.00 0.00 0.04 88 1005.4
20260831163100 63 240 0.0 0.0 0.00 0.00 0.04 88 1005.5
20260831161559 63 240 0.0 0.0 0.00 0.00 0.04 88 1005.5
20260831160059 63 240 0.0 0.0 0.00 0.00 0.04 88 1005.4
20260831154559 63 240 0.0 0.0 0.00 0.00 0.04 86 1005.1
20260831153115 64 243 0.0 0.0 0.00 0.00 0.04 86 1005.1
20260831151602 64 230 0.0 0.0 0.00 0.00 0.03 84 1005.5
20260831150057 65 225 1.0 0.0 0.00 0.00 0.03 82 1005.4
20260831144640 67 223 1.0 0.0 0.00 0.00 0.03 80 1005.5
20260831143100 68 224 1.0 0.0 0.00 0.00 0.03 79 1005.5
20260831141555 69 211 2.0 0.0 0.00 0.00 0.03 80 1005.5
20260831140055 69 233 2.0 0.0 0.00 0.00 0.03 81 1005.4
20260831134555 68 223 1.0 0.0 0.00 0.00 0.03 82 1005.3
20260831133100 68 233 2.0 0.0 0.00 0.00 0.03 81 1005.2
20260831131601 68 234 2.0 0.0 0.00 0.00 0.03 82 1005.2
20260831130053 68 232 3.0 0.0 0.00 0.00 0.03 82 1005.2
20260831124558 69 202 4.0 0.0 0.00 0.00 0.03 86 1005.2
20260831123054 69 250 1.0 0.0 0.00 0.00 0.03 91 1005.1
20260831121548 67 172 0.0 0.0 0.00 0.00 0.03 92 1005.2
20260831120045 66 118 0.0 0.0 0.00 0.00 0.02 92 1005.2
20260831114552 66 179 0.0 0.0 0.00 0.00 0.02 92 1005.5
20260831113043 65 179 0.0 0.0 0.00 0.00 0.02 92 1005.6
20260831111551 65 128 0.0 0.0 0.00 0.00 0.02 93 1005.5
20260831110042 63 162 0.0 0.0 0.00 0.00 0.02 92 1005.4
20260831104545 62 161 0.0 0.0 0.00 0.00 0.02 92 1005.7